Location: Crescent
(42.8242°N, 73.7329°W)
Time: 18:18:18
(UTC+00:00)

Explorer 7 - Pass Details

Date: 24 February 2026
Orbit: 430 x 541 km, 50.2° (Epoch: 10 March)

Event Time Altitude Azimuth Distance (km) Brightness Sun altitude
Rises 23:31:27 0° 296° (WNW) 2,502 11.4 -10.5°
Reaches altitude 10° 23:33:38 10° 289° (WNW) 1,643 10.5 -10.9°
Maximum altitude 23:37:09 40° 218° (SW) 726 7.8 -11.5°
Drops below altitude 10° 23:40:46 10° 148° (SSE) 1,700 9.0 -12.2°
Enters shadow 23:41:51 - 144° (SE) 2,116 9.5 -12.4°
Sets 23:43:05 0° 141° (SE) 2,602 - -12.6°
